Terminal Aerodrome Forecast
Issued by NWS Missoula, MT

Home | Current Version | Previous Version | Text Only | Print | Product List | Glossary On
Versions: 1 2 3 4 5 6 7 8 9 10 11 12 13 14 15 16 17 18
324
FTUS45 KMSO 110520
TAFMSO
TAF
KMSO 110520Z 1106/1206 VRB03KT 5SM -SN BKN050
      TEMPO 1106/1110 2SM -SN SCT030 OVC050
     FM111000 12005KT 3SM -SN BR BKN030 OVC050
     FM111800 12008KT P6SM VCSH SCT030 OVC050=

USA.gov is the U.S. government's official web portal to all federal, state and local government web resources and services.